Meteo Giornale » Osservazioni meteo Gran Bretagna » Shawbury

ore: 19:50 - Osservazioni Meteo Shawbury
Lat. 52° 48' N Lon. 2° 40' W Alt. 76 metri s.l.m.

molto_nuvoloso

16 °C

Molto Nuvoloso

Temp. 24 Ore

10 °C

19 °C

Ovest/Sud-Ovest

9.3 Km/h

Dew point 10 °C

Umidità 67 %

Visibilità  10 Km

Il sole sorge alle ore 06:19

Il sole tramonta alle ore 20:02

Data e Ora Cielo e Fenomeni T °C DP °C Um. % Pres. hPa Vis. km Vento km/h
Oggi h: 19:50 molto_nuvoloso Molto Nuvoloso 16 10 67 1017 10 O/SO 9.3
Oggi h: 19:20 molto_nuvoloso Molto Nuvoloso 16 11 72 1016 10 O 9.3
Oggi h: 18:50 molto_nuvoloso Molto Nuvoloso 17 11 67 1016 10 O/NO 13
Oggi h: 18:20 nuvoloso Nuvoloso 17 11 67 1015 10 O/NO 14.8
Oggi h: 17:50 nuvoloso Nuvoloso 18 10 59 1015 10 O 20.3
Oggi h: 17:20 molto_nuvoloso Molto Nuvoloso 18 10 59 1015 10 O/NO 14.8
Oggi h: 16:50 molto_nuvoloso Molto Nuvoloso 19 11 59 1015 10 O/NO 16.7
Oggi h: 16:20 coperto Coperto 18 12 67 1014 10 O/NO 20.3
Oggi h: 15:50 coperto Coperto 18 12 67 1014 10 O/NO 20.3
Oggi h: 15:20 coperto Coperto 19 12 63 1014 10 NO 18.5
Oggi h: 14:50 coperto_pioggia Pioviggine 18 12 67 1013 10 O/NO 20.3
Oggi h: 14:20 molto_nuvoloso Molto Nuvoloso 19 12 63 1013 10 O/NO 20.3
Oggi h: 13:50 coperto Coperto 19 13 68 1012 10 NO 16.7
Oggi h: 13:20 molto_nuvoloso Molto Nuvoloso 19 13 68 1012 10 O/NO 25.9
Oggi h: 12:50 nuvoloso Nuvoloso 19 13 68 1012 10 O/NO 24
Oggi h: 12:20 coperto_pioggia Pioggia 17 14 82 1011 10 O/NO 24
Oggi h: 11:50 coperto_pioggia Pioggia 18 14 77 1011 10 O/NO 16.7
Oggi h: 11:20 coperto Coperto 19 14 72 1010 10 O/NO 25.9
Oggi h: 10:50 molto_nuvoloso Molto Nuvoloso 19 14 72 1010 10 O/NO 25.9
Oggi h: 10:20 molto_nuvoloso Molto Nuvoloso 18 14 77 1009 10 O/NO 22.2
Oggi h: 09:50 coperto Coperto 17 15 88 1009 10 O 18.5
Oggi h: 09:20 coperto_pioggia Pioggia 16 14 87 1008 10 O 18.5
Oggi h: 08:50 poco_nuvoloso Poco Nuvoloso 16 13 82 1008 10 O/SO 16.7
Oggi h: 08:20 poco_nuvoloso Poco Nuvoloso 15 13 87 1007 10 O/SO 11.1
Oggi h: 07:50 sereno Sereno 13 13 100 1007 10 O/SO 11.1
Oggi h: 07:20 sereno Sereno 12 12 100 1006 10 S 7.4
Oggi h: 06:50 poco_nuvoloso Poco Nuvoloso 11 11 100 1006 10 N 3.7
Oggi h: 06:20 poco_nuvoloso Poco Nuvoloso 11 11 100 1005 10 N 1.8
Oggi h: 05:50 sereno Sereno 10 10 100 1005 10 O/SO 11.1
Oggi h: 05:20 poco_nuvoloso Poco Nuvoloso 10 9 93 1004 10 SO 7.4
Oggi h: 04:50 poco_nuvoloso Poco Nuvoloso 12 11 93 1004 10 N 5.5
Oggi h: 04:20 coperto Coperto 12 11 93 1004 10 S/SO 7.4
Oggi h: 03:50 molto_nuvoloso Molto Nuvoloso 12 11 93 1004 10 SO 9.3
Oggi h: 03:20 coperto Coperto 12 11 93 1004 10 SO 7.4
Oggi h: 02:50 nuvoloso Nuvoloso 12 11 93 1003 10 S/SO 9.3
Oggi h: 02:20 nuvoloso Nuvoloso 12 11 93 1003 10 O/SO 7.4
Oggi h: 01:50 coperto Coperto 12 10 87 1003 10 SO 11.1
Oggi h: 01:20 poco_nuvoloso Poco Nuvoloso 13 11 87 1003 10 S/SO 13
Oggi h: 00:50 coperto Coperto 13 11 87 1003 10 O/SO 13
Oggi h: 00:20 coperto Coperto 14 12 87 1002 10 SO 11.1
Ieri h: 23:50 molto_nuvoloso Molto Nuvoloso 15 13 87 1002 10 SE 9.3
Ieri h: 23:20 molto_nuvoloso Molto Nuvoloso 15 14 93 1002 10 S 9.3
Ieri h: 22:50 nuvoloso Nuvoloso 15 15 100 1003 10 S 9.3
Ieri h: 22:20 nuvoloso Nuvoloso 15 14 93 1003 10 N 1.8
Ieri h: 21:50 molto_nuvoloso Molto Nuvoloso 15 15 100 1003 10 N 3.7
Ieri h: 21:20 coperto_pioggia Pioggia 16 15 93 1003 5 S 7.4
Ieri h: 20:50 coperto_pioggia Pioggia 16 15 93 1003 3 E/SE 7.4